Miscellaneous Local Product
Issued by NWS Hastings, NE

Home | Current Version | Previous Version | Graphics & Text | Print | Product List | Glossary On
Versions: 1 2 3 4 5 6 7 8 9 10 11 12 13 14 15 16 17 18 19 20 21 22 23 24 25 26 27 28 29 30 31 32 33 34 35 36 37 38 39 40 41 42 43 44 45 46 47 48 49 50
000
AXUS43 KGID 230302
MISGRI

GID CWA HOURLY WEATHER ROUNDUP
NATIONAL WEATHER SERVICE HASTINGS NE
1000 PM CDT TUE APR 22 2014

NOTE: "FAIR" INDICATES FEW OR NO CLOUDS BELOW 12,000 FEET WITH NO
SIGNIFICANT WEATHER AND/OR OBSTRUCTIONS TO VISIBILITY.

...SOUTH CENTRAL NEBRASKA...

CITY           SKY/WX    TMP DP  RH WIND       PRES   REMARKS
GRAND ISLAND   CLEAR     61  31  32 SE18      29.88S
HASTINGS       PTCLDY    60  30  32 SE15G22   29.87S
KEARNEY        CLEAR     61  32  33 SE17G24   29.85S
ORD            CLEAR     60  33  36 SE13      29.83R
YORK           MOCLDY    59  32  36 SE17G23   29.92S
AURORA         CLEAR     60  32  35 SE14      29.90R
LEXINGTON      CLEAR     64  33  31 SE22      29.81R
HOLDREGE       PTCLDY    62  33  33 SE17      29.83S
HEBRON         CLEAR     61  31  32 SE13      29.93R

...NEBRASKA PANHANDLE...

CITY           SKY/WX    TMP DP  RH WIND       PRES   REMARKS
CHADRON        CLOUDY    62  48  60 SE15      29.59F
ALLIANCE       LGT RAIN  67  46  47 SE16      29.68R
SCOTTSBLUFF    CLOUDY    68  39  34 E10       29.62F
SIDNEY         MOCLDY    61  34  36 SE9       29.66S

...WESTERN AND NORTH CENTRAL NEBRASKA...

CITY           SKY/WX    TMP DP  RH WIND       PRES   REMARKS
VALENTINE      CLOUDY    66  34  30 SE14      29.74R
AINSWORTH      CLOUDY    62  33  33 SE16G25   29.76S
ONEILL         CLEAR     61  27  28 SE17      29.84S
BROKEN BOW     CLEAR     60  33  36 SE17G24   29.81R
IMPERIAL       MOCLDY    67  41  38 SE18      29.70S
NORTH PLATTE   CLEAR     66  30  26 SE20G30   29.74S
MCCOOK         CLEAR     66  36  32 SE22G33   29.76R

...EASTERN NEBRASKA...

CITY           SKY/WX    TMP DP  RH WIND       PRES   REMARKS
NORFOLK        CLEAR     58  33  39 SE14      29.91S
SO SIOUX CITY  CLOUDY    61  35  37 SE13      29.97S
TEKAMAH        CLOUDY    61  33  35 E12       29.97F
COLUMBUS       CLEAR     61  32  33 SE9       29.93S
ALBION         CLEAR     61  28  29 SE14G21   29.89R
OMAHA EPPLEY   CLOUDY    63  33  32 E12       29.98R
OFFUTT AFB     CLOUDY    62  35  36 E12       29.98R
MILLARD        MOCLDY    63  33  33 SE7       29.98R
LINCOLN        PTCLDY    65  31  28 SE13      29.96S
NEBRASKA CITY  CLOUDY    63  32  30 SE10      29.99R
BEATRICE       PTCLDY    63  32  31 SE9       29.97R
FALLS CITY     MOCLDY    58  36  43 E7        29.98R

...NORTHERN KANSAS...

CITY           SKY/WX    TMP DP  RH WIND       PRES   REMARKS
GOODLAND       MOCLDY    62  48  60 S25G32    29.77R
HILL CITY      MOCLDY    66  35  31 S22G32    29.83S
PHILLIPSBURG   CLEAR     63  34  34 E12       29.85R
SMITH CENTER   PTCLDY    59  36  41 SE15      29.87S
BELOIT         CLEAR     64  28  25 SE16      29.89S
HAYS           CLOUDY   N/A N/A N/A SE22G30   29.85S
RUSSELL        CLOUDY    64  32  30 SE20      29.85F
CONCORDIA      CLEAR     60  31  33 SE13      29.92R
SALINA         MOCLDY    63  32  31 SE13      29.93S
TOPEKA         CLEAR     61  34  36 E3        29.99R



USA.gov is the U.S. government's official web portal to all federal, state and local government web resources and services.